Hourly Weather Gogovo

Today, 17 June, Thursday

Time Temperature Precipitation Wind Pressure Humidity
00:00 +12°C° 0 mm 1 mps 752 mmHg 80%
01:00 +12°C° 0 mm 1 mps 752 mmHg 81%
02:00 +11°C° 0 mm 1 mps 753 mmHg 82%
03:00 +11°C° 0 mm 1 mps 753 mmHg 81%
04:00 +12°C° 0 mm 1 mps 753 mmHg 81%
05:00 +12°C° 0 mm 1 mps 753 mmHg 80%
06:00 +14°C° 0 mm 1 mps 753 mmHg 75%
07:00 +16°C° 0 mm 1 mps 754 mmHg 70%
08:00 +19°C° 0 mm 1 mps 754 mmHg 64%
09:00 +21°C° 0 mm 1 mps 754 mmHg 61%
10:00 +21°C° 0 mm 2 mps 754 mmHg 57%
11:00 +23°C° 0 mm 2 mps 754 mmHg 53%
12:00 +24°C° 0 mm 2 mps 754 mmHg 51%
13:00 +25°C° 0 mm 2 mps 754 mmHg 49%
14:00 +25°C° 0 mm 1 mps 754 mmHg 47%
15:00 +25°C° 0 mm 1 mps 754 mmHg 49%
16:00 +25°C° 0 mm 1 mps 754 mmHg 51%
17:00 +25°C° 0 mm 1 mps 754 mmHg 52%
18:00 +24°C° 0 mm 1 mps 754 mmHg 60%
19:00 +21°C° 0 mm 2 mps 754 mmHg 68%
20:00 +19°C° 0 mm 2 mps 754 mmHg 76%
21:00 +18°C° 0 mm 2 mps 754 mmHg 78%
22:00 +17°C° 0 mm 2 mps 754 mmHg 81%
23:00 +16°C° 0 mm 2 mps 755 mmHg 84%

Tomorrow, 18 June, Friday

Time Temperature Precipitation Wind Pressure Humidity
00:00 +15°C° 0 mm 2 mps 755 mmHg 86%
01:00 +15°C° 0 mm 2 mps 755 mmHg 87%
02:00 +15°C° 0 mm 2 mps 755 mmHg 88%
03:00 +15°C° 0 mm 2 mps 755 mmHg 87%
04:00 +15°C° 0 mm 2 mps 755 mmHg 86%
05:00 +15°C° 0 mm 2 mps 755 mmHg 85%
06:00 +17°C° 0 mm 2 mps 755 mmHg 79%
07:00 +19°C° 0 mm 2 mps 755 mmHg 74%
08:00 +21°C° 0 mm 2 mps 755 mmHg 68%
09:00 +23°C° 0 mm 2 mps 755 mmHg 63%
10:00 +24°C° 0 mm 3 mps 755 mmHg 58%
11:00 +25°C° 0 mm 3 mps 755 mmHg 54%
12:00 +26°C° 0 mm 3 mps 755 mmHg 52%
13:00 +27°C° 0 mm 3 mps 754 mmHg 50%
14:00 +27°C° 0 mm 3 mps 754 mmHg 48%
15:00 +27°C° 0 mm 3 mps 754 mmHg 52%
16:00 +27°C° 0 mm 3 mps 754 mmHg 55%
17:00 +27°C° 0 mm 3 mps 754 mmHg 59%
18:00 +25°C° 0 mm 3 mps 753 mmHg 65%
19:00 +23°C° 0 mm 2 mps 753 mmHg 72%
20:00 +21°C° 0 mm 2 mps 753 mmHg 78%
21:00 +19°C° 0 mm 2 mps 753 mmHg 81%
22:00 +18°C° 0 mm 2 mps 754 mmHg 83%
23:00 +17°C° 0 mm 2 mps 754 mmHg 86%

Day after tomorrow, 19 June, Saturday

Time Temperature Precipitation Wind Pressure Humidity
00:00 +16°C° 0 mm 2 mps 754 mmHg 87%
01:00 +16°C° 0 mm 2 mps 754 mmHg 87%
02:00 +15°C° 0 mm 2 mps 754 mmHg 88%
03:00 +15°C° 0 mm 2 mps 754 mmHg 89%
04:00 +15°C° 0 mm 2 mps 754 mmHg 89%
05:00 +16°C° 0 mm 2 mps 754 mmHg 90%
06:00 +18°C° 0 mm 3 mps 754 mmHg 84%
07:00 +19°C° 0 mm 3 mps 754 mmHg 78%
08:00 +21°C° 0 mm 3 mps 754 mmHg 72%
09:00 +24°C° 0 mm 3 mps 754 mmHg 67%
10:00 +25°C° 0 mm 3 mps 754 mmHg 63%
11:00 +26°C° 0 mm 3 mps 754 mmHg 58%
12:00 +27°C° 0 mm 3 mps 753 mmHg 56%
13:00 +27°C° 0 mm 3 mps 753 mmHg 54%
14:00 +28°C° 0 mm 3 mps 753 mmHg 52%
15:00 +28°C° 0 mm 3 mps 752 mmHg 55%
16:00 +27°C° 0 mm 3 mps 752 mmHg 58%
17:00 +27°C° 0 mm 3 mps 752 mmHg 61%
18:00 +26°C° 0 mm 3 mps 752 mmHg 67%
19:00 +24°C° 0 mm 3 mps 752 mmHg 74%
20:00 +23°C° 0 mm 2 mps 752 mmHg 80%
21:00 +20°C° 0 mm 2 mps 752 mmHg 82%
22:00 +19°C° 0 mm 2 mps 752 mmHg 84%
23:00 +18°C° 0 mm 3 mps 752 mmHg 86%

20 June, Sunday

Time Temperature Precipitation Wind Pressure Humidity
00:00 +18°C° 0 mm 3 mps 752 mmHg 89%
01:00 +18°C° 0 mm 3 mps 752 mmHg 91%
02:00 +17°C° 0 mm 3 mps 752 mmHg 93%
03:00 +17°C° 0 mm 2 mps 752 mmHg 93%
04:00 +18°C° 0 mm 2 mps 752 mmHg 93%
05:00 +18°C° 0 mm 2 mps 752 mmHg 93%
06:00 +20°C° 0 mm 3 mps 752 mmHg 86%
07:00 +21°C° 0 mm 3 mps 752 mmHg 80%
08:00 +24°C° 0 mm 3 mps 752 mmHg 74%
09:00 +25°C° 0.2 mm 3 mps 751 mmHg 71%
10:00 +26°C° 0.2 mm 3 mps 751 mmHg 67%
11:00 +27°C° 0.2 mm 4 mps 751 mmHg 64%
12:00 +28°C° 0.2 mm 4 mps 751 mmHg 62%
13:00 +28°C° 0.2 mm 4 mps 751 mmHg 60%
14:00 +28°C° 0.2 mm 4 mps 750 mmHg 58%
15:00 +28°C° 0.2 mm 4 mps 750 mmHg 62%
16:00 +27°C° 0.2 mm 3 mps 750 mmHg 67%
17:00 +27°C° 0.2 mm 3 mps 750 mmHg 71%
18:00 +26°C° 0.3 mm 3 mps 750 mmHg 76%
19:00 +24°C° 0.3 mm 2 mps 750 mmHg 81%
20:00 +23°C° 0.3 mm 2 mps 750 mmHg 87%
21:00 +21°C° 0 mm 2 mps 750 mmHg 89%
22:00 +20°C° 0 mm 2 mps 750 mmHg 91%
23:00 +19°C° 0 mm 2 mps 750 mmHg 93%

21 June, Monday

Time Temperature Precipitation Wind Pressure Humidity
00:00 +19°C° 0 mm 2 mps 750 mmHg 93%
01:00 +19°C° 0 mm 2 mps 750 mmHg 93%
02:00 +19°C° 0 mm 2 mps 750 mmHg 94%
03:00 +19°C° 0 mm 2 mps 750 mmHg 94%
04:00 +19°C° 0 mm 2 mps 750 mmHg 94%
05:00 +19°C° 0 mm 2 mps 750 mmHg 94%
06:00 +21°C° 0 mm 2 mps 750 mmHg 88%
07:00 +23°C° 0 mm 2 mps 750 mmHg 82%
08:00 +25°C° 0 mm 2 mps 750 mmHg 77%
09:00 +26°C° 0 mm 3 mps 750 mmHg 71%
10:00 +27°C° 0 mm 3 mps 750 mmHg 66%
11:00 +28°C° 0 mm 4 mps 750 mmHg 61%
12:00 +29°C° 0 mm 4 mps 750 mmHg 57%
13:00 +29°C° 0 mm 4 mps 749 mmHg 54%
14:00 +30°C° 0 mm 4 mps 749 mmHg 51%
15:00 +30°C° 0 mm 3 mps 749 mmHg 53%
16:00 +30°C° 0 mm 3 mps 749 mmHg 56%
17:00 +30°C° 0 mm 3 mps 749 mmHg 58%
18:00 +28°C° 0 mm 3 mps 749 mmHg 65%
19:00 +27°C° 0 mm 3 mps 748 mmHg 73%
20:00 +25°C° 0 mm 3 mps 748 mmHg 80%
21:00 +24°C° 0 mm 3 mps 748 mmHg 83%
22:00 +22°C° 0 mm 3 mps 748 mmHg 86%
23:00 +21°C° 0 mm 3 mps 748 mmHg 88%

22 June, Tuesday

Time Temperature Precipitation Wind Pressure Humidity
00:00 +20°C° 0 mm 3 mps 748 mmHg 91%
01:00 +20°C° 0 mm 3 mps 748 mmHg 93%
02:00 +19°C° 0 mm 3 mps 748 mmHg 95%
03:00 +20°C° 0 mm 3 mps 748 mmHg 95%
04:00 +20°C° 0 mm 3 mps 748 mmHg 95%
05:00 +20°C° 0 mm 3 mps 748 mmHg 95%
06:00 +21°C° 0 mm 3 mps 748 mmHg 89%
07:00 +23°C° 0 mm 4 mps 748 mmHg 83%
08:00 +26°C° 0 mm 5 mps 748 mmHg 77%
09:00 +27°C° 0 mm 5 mps 748 mmHg 71%
10:00 +28°C° 0 mm 5 mps 749 mmHg 65%
11:00 +29°C° 0 mm 5 mps 749 mmHg 59%
12:00 +30°C° 0 mm 5 mps 749 mmHg 56%
13:00 +32°C° 0 mm 5 mps 749 mmHg 53%
14:00 +33°C° 0 mm 4 mps 749 mmHg 50%
15:00 +32°C° 0 mm 4 mps 748 mmHg 53%
16:00 +32°C° 0 mm 4 mps 748 mmHg 56%
17:00 +30°C° 0 mm 4 mps 748 mmHg 60%
18:00 +29°C° 0 mm 4 mps 748 mmHg 65%
19:00 +27°C° 0 mm 4 mps 748 mmHg 71%
20:00 +26°C° 0 mm 4 mps 748 mmHg 76%
21:00 +25°C° 0 mm 4 mps 748 mmHg 80%
22:00 +23°C° 0 mm 4 mps 748 mmHg 83%
23:00 +22°C° 0 mm 3 mps 748 mmHg 87%
Show more

We Need Your Consent

Meteoprog and our Service Providers may store and access personal data such as cookies, device identifiers or other similar technologies on your device and process such data to personalise content and ads, as well as provide social media features and to analyse the traffic.

  • Store and/or access information on your device

    Cookies, device identifiers or other information can be stored or accessed on your device for the purposes indicated above.

  • Personalised ads and content, ad and content measurement, audience insights, and products development

    Ads and content can be personalised based on a profile. More data can be added to better personalise ads and content. Ad and content performance can be measured. Insights about the audience who saw the ads and content can be derived. Such data can be used to develop or improve user’s experience, systems and software.

By clicking ‘I Agree’ you will allow the use of indicated cookies, device identifiers, web beacons or other similar technologies. Your settings can be changed in the browser on your device.

For certain purposes, legitimate interests may be relied on, rather than consent. You can read more about this in our Privacy and Cookie Policy.